This is the latest recevied weather packets stored in our database for station/object KQ7A. If no packets are shown the sender has not sent any weather packets the latest 10 day(s).
| Time | Temp. | Humidity | Pressure | Rain* | Wind** | Luminosity | Snow |
|---|---|---|---|---|---|---|---|
| 1777594653 | 21.11° C | 21% | 1016.6 hPa | 0 mm | - | 364 W/m² | - |
| 1777594350 | 20.56° C | 23% | 1016.4 hPa | 0 mm | - | 375 W/m² | - |
| 1777594046 | 20.56° C | 24% | 1016.3 hPa | 0 mm | - | 402 W/m² | - |
| 1777593741 | 21.11° C | 23% | 1016.6 hPa | 0 mm | - | 413 W/m² | - |
| 1777593438 | 21.11° C | 23% | 1016.6 hPa | 0 mm | - | 432 W/m² | - |
| 1777593136 | 20.56° C | 26% | 1016.6 hPa | 0 mm | - | 436 W/m² | - |
| 1777592835 | 21.11° C | 23% | 1016.7 hPa | 0 mm | - | 441 W/m² | - |
| 1777592533 | 20.56° C | 24% | 1016.6 hPa | 0 mm | - | 445 W/m² | - |
| 1777592228 | 21.11° C | 23% | 1016.8 hPa | 0 mm | - | 462 W/m² | - |
| 1777591925 | 21.11° C | 23% | 1016.6 hPa | 0 mm | - | 508 W/m² | - |
| 1777591621 | 21.11° C | 25% | 1016.8 hPa | 0 mm | - | 520 W/m² | - |
| 1777591317 | 20.56° C | 24% | 1016.7 hPa | 0 mm | - | 526 W/m² | - |
| 1777591013 | 20.56° C | 21% | 1016.8 hPa | 0 mm | - | 546 W/m² | - |
| 1777590708 | 20.56° C | 27% | 1016.7 hPa | 0 mm | - | 549 W/m² | - |
| 1777590405 | 20.56° C | 24% | 1016.9 hPa | 0 mm | - | 557 W/m² | - |
| 1777590102 | 20.56° C | 23% | 1017 hPa | 0 mm | - | 568 W/m² | - |
| 1777589798 | 20.56° C | 23% | 1016.8 hPa | 0 mm | - | 577 W/m² | - |
| 1777589498 | 20.56° C | 24% | 1016.7 hPa | 0 mm | - | 603 W/m² | - |
| 1777589192 | 21.11° C | 28% | 1017.1 hPa | 0 mm | - | 576 W/m² | - |
| 1777588889 | 20.56° C | 26% | 1017.3 hPa | 0 mm | - | 590 W/m² | - |
| 1777588585 | 20.56° C | 25% | 1017.1 hPa | 0 mm | - | 514 W/m² | - |
| 1777588280 | 20.56° C | 25% | 1017.3 hPa | 0 mm | - | 537 W/m² | - |
| 1777587976 | 21.11° C | 23% | 1017.5 hPa | 0 mm | - | 658 W/m² | - |
| 1777587672 | 20.56° C | 23% | 1017.4 hPa | 0 mm | - | 531 W/m² | - |
| 1777587372 | 20.56° C | 22% | 1017.3 hPa | 0 mm | - | 448 W/m² | - |
* Rain latest hour (hover to see other rain measurements)
** Current wind speed in m/s (hover to see current wind gust speed)